Time,TemperatureF,DewpointF,PressureIn,WindDirection,WindDirectionDegrees,WindSpeedMPH,WindSpeedGustMPH,Humidity,HourlyPrecipIn,Conditions,Clouds,dailyrainin,SoftwareType,DateUTC
2013-06-14 00:00:00,82.6,77.6,29.72,WNW,297,0.0,3.0,85,0.00,CLR,,0.00,WeatherDisplay:10.37,2013-06-14 04:00:00,
2013-06-14 00:05:00,82.8,77.4,29.72,WNW,295,0.0,5.0,84,0.00,CLR,,0.00,WeatherDisplay:10.37,2013-06-14 04:05:00,
2013-06-14 00:10:00,83.1,77.1,29.73,NW,311,0.0,3.0,82,0.00,CLR,,0.00,WeatherDisplay:10.37,2013-06-14 04:10:00,
2013-06-14 00:15:00,83.3,77.2,29.73,NW,318,0.0,2.0,82,0.00,CLR,,0.00,WeatherDisplay:10.37,2013-06-14 04:15:00,
2013-06-14 00:20:00,83.3,77.2,29.74,SW,229,0.0,1.0,82,0.00,CLR,,0.00,WeatherDisplay:10.37,2013-06-14 04:20:00,
2013-06-14 00:25:00,83.1,77.4,29.76,WSW,256,2.0,7.0,83,0.00,CLR,,0.00,WeatherDisplay:10.37,2013-06-14 04:25:00,
2013-06-14 00:30:00,81.7,77.8,29.76,NNW,329,1.0,8.0,88,0.02,RA,,0.02,WeatherDisplay:10.37,2013-06-14 04:30:00,
2013-06-14 00:35:00,79.8,77.0,29.76,NNW,333,1.0,3.0,91,0.02,RA,,0.05,WeatherDisplay:10.37,2013-06-14 04:35:00,
2013-06-14 00:40:00,78.1,76.6,29.75,NW,309,0.0,2.0,95,0.00,RA,,0.05,WeatherDisplay:10.37,2013-06-14 04:40:00,
2013-06-14 00:45:00,77.1,76.5,29.75,NW,319,0.0,2.0,98,0.00,,,0.05,WeatherDisplay:10.37,2013-06-14 04:45:00,
2013-06-14 00:50:00,76.4,76.1,29.76,North,1,0.0,2.0,99,0.00,CLR,,0.05,WeatherDisplay:10.37,2013-06-14 04:50:00,
2013-06-14 00:55:00,75.9,75.6,29.75,NE,38,0.0,2.0,99,0.00,CLR,,0.05,WeatherDisplay:10.37,2013-06-14 04:55:00,
2013-06-14 01:00:00,75.4,75.1,29.75,NNE,25,0.0,2.0,99,0.00,CLR,,0.05,WeatherDisplay:10.37,2013-06-14 05:00:00,
2013-06-14 01:05:00,75.4,75.1,29.75,NNW,340,0.0,2.0,99,0.00,CLR,,0.05,WeatherDisplay:10.37,2013-06-14 05:05:00,
2013-06-14 01:10:00,74.7,74.4,29.75,NNW,336,0.0,3.0,99,0.00,CLR,,0.05,WeatherDisplay:10.37,2013-06-14 05:10:00,
2013-06-14 01:15:00,74.5,74.2,29.75,North,358,0.0,1.0,99,0.00,CLR,,0.05,WeatherDisplay:10.37,2013-06-14 05:15:00,
2013-06-14 01:20:00,74.3,74.0,29.75,North,1,0.0,0.0,99,0.00,CLR,,0.05,WeatherDisplay:10.37,2013-06-14 05:20:00,
2013-06-14 01:25:00,74.1,73.8,29.74,North,359,0.0,1.0,99,0.01,RA,,0.06,WeatherDisplay:10.37,2013-06-14 05:25:00,
2013-06-14 01:30:00,74.1,73.8,29.75,NW,308,0.0,1.0,99,0.00,RA,,0.06,WeatherDisplay:10.37,2013-06-14 05:30:00,
2013-06-14 01:35:00,73.9,73.6,29.74,West,278,0.0,1.0,99,0.00,CLR,,0.06,WeatherDisplay:10.37,2013-06-14 05:35:00,
2013-06-14 01:40:00,73.8,73.5,29.74,WNW,285,1.0,2.0,99,0.00,CLR,,0.06,WeatherDisplay:10.37,2013-06-14 05:40:00,
2013-06-14 01:45:00,73.8,73.5,29.74,NW,311,0.0,1.0,99,0.00,CLR,,0.06,WeatherDisplay:10.37,2013-06-14 05:45:00,
2013-06-14 01:50:00,73.6,73.3,29.74,NW,323,0.0,1.0,99,0.00,CLR,,0.06,WeatherDisplay:10.37,2013-06-14 05:50:00,
2013-06-14 01:55:00,73.4,73.1,29.75,NW,323,0.0,1.0,99,0.00,CLR,,0.06,WeatherDisplay:10.37,2013-06-14 05:55:00,
2013-06-14 02:00:00,73.4,73.1,29.75,NW,323,0.0,0.0,99,0.00,CLR,,0.06,WeatherDisplay:10.37,2013-06-14 06:00:00,
2013-06-14 02:10:00,73.4,73.1,29.75,WSW,254,0.0,1.0,99,0.00,CLR,,0.06,WeatherDisplay:10.37,2013-06-14 06:10:00,
2013-06-14 02:15:00,73.4,73.1,29.75,South,176,0.0,1.0,99,0.00,CLR,,0.06,WeatherDisplay:10.37,2013-06-14 06:15:00,
2013-06-14 02:20:00,73.4,73.1,29.75,SE,143,0.0,1.0,99,0.00,CLR,,0.06,WeatherDisplay:10.37,2013-06-14 06:20:00,
2013-06-14 02:25:00,73.2,72.9,29.75,SE,143,0.0,1.0,99,0.00,CLR,,0.06,WeatherDisplay:10.37,2013-06-14 06:25:00,
2013-06-14 02:30:00,73.2,72.9,29.75,SE,143,0.0,0.0,99,0.00,CLR,,0.06,WeatherDisplay:10.37,2013-06-14 06:30:00,
2013-06-14 02:35:00,73.2,72.9,29.75,SE,143,0.0,0.0,99,0.00,CLR,,0.06,WeatherDisplay:10.37,2013-06-14 06:35:00,
2013-06-14 02:40:00,73.2,72.9,29.74,SE,143,0.0,0.0,99,0.00,CLR,,0.06,WeatherDisplay:10.37,2013-06-14 06:40:00,
2013-06-14 02:45:00,73.2,72.9,29.74,SE,143,0.0,0.0,99,0.00,CLR,,0.06,WeatherDisplay:10.37,2013-06-14 06:45:00,
2013-06-14 02:50:00,73.2,72.9,29.74,SE,143,0.0,1.0,99,0.00,CLR,,0.06,WeatherDisplay:10.37,2013-06-14 06:50:00,
2013-06-14 02:55:00,73.2,72.9,29.74,NW,323,0.0,1.0,99,0.00,CLR,,0.06,WeatherDisplay:10.37,2013-06-14 06:55:00,
2013-06-14 03:00:00,73.0,72.7,29.74,NW,323,0.0,0.0,99,0.00,CLR,,0.06,WeatherDisplay:10.37,2013-06-14 07:00:00,
2013-06-14 03:05:00,73.0,72.7,29.74,NW,323,0.0,0.0,99,0.00,CLR,,0.06,WeatherDisplay:10.37,2013-06-14 07:05:00,
2013-06-14 03:10:00,73.0,72.7,29.74,NW,323,0.0,0.0,99,0.00,CLR,,0.06,WeatherDisplay:10.37,2013-06-14 07:10:00,
2013-06-14 03:15:00,73.0,72.7,29.74,NW,323,0.0,0.0,99,0.00,CLR,,0.06,WeatherDisplay:10.37,2013-06-14 07:15:00,
2013-06-14 03:20:00,73.2,72.9,29.75,NW,323,0.0,0.0,99,0.00,CLR,,0.06,WeatherDisplay:10.37,2013-06-14 07:20:00,
2013-06-14 03:25:00,73.2,72.9,29.75,NW,323,0.0,0.0,99,0.00,CLR,,0.06,WeatherDisplay:10.37,2013-06-14 07:25:00,
2013-06-14 03:30:00,73.4,73.1,29.75,NW,323,0.0,1.0,99,0.00,CLR,,0.06,WeatherDisplay:10.37,2013-06-14 07:30:00,
2013-06-14 03:35:00,73.4,73.1,29.75,NNW,327,0.0,1.0,99,0.00,CLR,,0.06,WeatherDisplay:10.37,2013-06-14 07:35:00,
2013-06-14 03:40:00,73.2,72.9,29.74,North,352,0.0,0.0,99,0.00,CLR,,0.06,WeatherDisplay:10.37,2013-06-14 07:40:00,
2013-06-14 03:45:00,73.2,72.9,29.75,North,8,0.0,0.0,99,0.00,CLR,,0.06,WeatherDisplay:10.37,2013-06-14 07:45:00,
2013-06-14 03:50:00,73.0,72.7,29.75,North,8,0.0,0.0,99,0.00,CLR,,0.06,WeatherDisplay:10.37,2013-06-14 07:50:00,
2013-06-14 03:55:00,73.0,72.7,29.75,North,8,0.0,0.0,99,0.00,CLR,,0.06,WeatherDisplay:10.37,2013-06-14 07:55:00,
2013-06-14 04:00:00,73.0,72.7,29.75,North,8,0.0,0.0,99,0.00,CLR,,0.06,WeatherDisplay:10.37,2013-06-14 08:00:00,
2013-06-14 04:05:00,73.0,72.7,29.75,North,8,0.0,1.0,99,0.00,CLR,,0.06,WeatherDisplay:10.37,2013-06-14 08:05:00,
2013-06-14 04:10:00,73.0,72.7,29.75,North,8,0.0,1.0,99,0.00,CLR,,0.06,WeatherDisplay:10.37,2013-06-14 08:10:00,
2013-06-14 04:15:00,73.0,72.7,29.75,North,8,0.0,1.0,99,0.00,CLR,,0.06,WeatherDisplay:10.37,2013-06-14 08:15:00,
2013-06-14 04:20:00,73.0,72.7,29.75,North,353,0.0,1.0,99,0.00,CLR,,0.06,WeatherDisplay:10.37,2013-06-14 08:20:00,
2013-06-14 04:25:00,72.9,72.6,29.75,NNW,337,0.0,2.0,99,0.00,CLR,,0.06,WeatherDisplay:10.37,2013-06-14 08:25:00,
2013-06-14 04:30:00,72.9,72.6,29.76,NW,326,0.0,2.0,99,0.00,CLR,,0.06,WeatherDisplay:10.37,2013-06-14 08:30:00,
2013-06-14 04:35:00,72.5,72.2,29.76,NNW,332,0.0,2.0,99,0.00,CLR,,0.06,WeatherDisplay:10.37,2013-06-14 08:35:00,
2013-06-14 04:40:00,72.3,72.0,29.76,NNW,334,0.0,2.0,99,0.00,CLR,,0.06,WeatherDisplay:10.37,2013-06-14 08:40:00,
2013-06-14 04:45:00,72.3,72.0,29.76,NNW,333,1.0,2.0,99,0.00,CLR,,0.06,WeatherDisplay:10.37,2013-06-14 08:45:00,
2013-06-14 04:50:00,72.1,71.8,29.76,NNW,328,0.0,2.0,99,0.00,CLR,,0.06,WeatherDisplay:10.37,2013-06-14 08:50:00,
2013-06-14 04:55:00,72.0,71.7,29.77,NNW,332,0.0,2.0,99,0.00,CLR,,0.06,WeatherDisplay:10.37,2013-06-14 08:55:00,
2013-06-14 05:00:00,72.0,71.7,29.77,NNW,346,0.0,2.0,99,0.00,CLR,,0.06,WeatherDisplay:10.37,2013-06-14 09:00:00,
2013-06-14 05:05:00,71.8,71.5,29.77,North,1,0.0,2.0,99,0.00,CLR,,0.06,WeatherDisplay:10.37,2013-06-14 09:05:00,
2013-06-14 05:10:00,71.7,71.4,29.77,North,356,0.0,3.0,99,0.00,CLR,,0.06,WeatherDisplay:10.37,2013-06-14 09:10:00,
2013-06-14 05:15:00,71.6,71.3,29.77,North,349,0.0,2.0,99,0.00,CLR,,0.06,WeatherDisplay:10.37,2013-06-14 09:15:00,
2013-06-14 05:20:00,71.6,71.3,29.77,NNW,338,0.0,2.0,99,0.00,CLR,,0.06,WeatherDisplay:10.37,2013-06-14 09:20:00,
2013-06-14 05:25:00,71.4,71.1,29.77,North,350,0.0,1.0,99,0.00,CLR,,0.06,WeatherDisplay:10.37,2013-06-14 09:25:00,
2013-06-14 05:30:00,71.4,71.1,29.77,North,355,0.0,2.0,99,0.00,CLR,,0.06,WeatherDisplay:10.37,2013-06-14 09:30:00,
2013-06-14 05:35:00,71.2,70.9,29.77,NNW,339,0.0,3.0,99,0.00,CLR,,0.06,WeatherDisplay:10.37,2013-06-14 09:35:00,
2013-06-14 05:40:00,71.2,70.9,29.78,NW,326,0.0,2.0,99,0.00,CLR,,0.06,WeatherDisplay:10.37,2013-06-14 09:40:00,
2013-06-14 05:45:00,71.1,70.8,29.78,NW,324,0.0,2.0,99,0.00,CLR,,0.06,WeatherDisplay:10.37,2013-06-14 09:45:00,
2013-06-14 05:50:00,70.9,70.6,29.79,NW,317,0.0,2.0,99,0.00,CLR,,0.06,WeatherDisplay:10.37,2013-06-14 09:50:00,
2013-06-14 05:55:00,70.7,70.4,29.79,NNW,331,0.0,2.0,99,0.00,CLR,,0.06,WeatherDisplay:10.37,2013-06-14 09:55:00,
2013-06-14 06:00:00,70.5,70.2,29.79,NNW,330,0.0,2.0,99,0.00,CLR,,0.06,WeatherDisplay:10.37,2013-06-14 10:00:00,
2013-06-14 06:05:00,70.5,70.2,29.79,NW,323,0.0,1.0,99,0.00,CLR,,0.06,WeatherDisplay:10.37,2013-06-14 10:05:00,
2013-06-14 06:10:00,70.3,70.0,29.80,NW,323,0.0,1.0,99,0.00,CLR,,0.06,WeatherDisplay:10.37,2013-06-14 10:10:00,
2013-06-14 06:15:00,70.2,69.9,29.80,NW,323,0.0,1.0,99,0.00,CLR,,0.06,WeatherDisplay:10.37,2013-06-14 10:15:00,
2013-06-14 06:20:00,70.0,69.7,29.80,NW,323,0.0,2.0,99,0.00,CLR,,0.06,WeatherDisplay:10.37,2013-06-14 10:20:00,
2013-06-14 06:25:00,69.8,69.5,29.81,SE,143,0.0,1.0,99,0.00,CLR,,0.06,WeatherDisplay:10.37,2013-06-14 10:25:00,
2013-06-14 06:30:00,69.6,69.3,29.81,South,191,0.0,2.0,99,0.00,CLR,,0.06,WeatherDisplay:10.37,2013-06-14 10:30:00,
2013-06-14 06:35:00,69.6,69.3,29.81,NW,308,0.0,2.0,99,0.00,CLR,,0.06,WeatherDisplay:10.37,2013-06-14 10:35:00,
2013-06-14 06:40:00,69.4,69.1,29.81,NW,323,0.0,1.0,99,0.00,CLR,,0.06,WeatherDisplay:10.37,2013-06-14 10:40:00,
2013-06-14 06:45:00,69.4,69.1,29.82,NW,323,0.0,0.0,99,0.00,CLR,,0.06,WeatherDisplay:10.37,2013-06-14 10:45:00,
2013-06-14 06:50:00,69.4,69.1,29.82,NW,323,0.0,0.0,99,0.00,CLR,,0.06,WeatherDisplay:10.37,2013-06-14 10:50:00,
2013-06-14 06:55:00,69.4,69.1,29.82,NW,323,0.0,2.0,99,0.00,CLR,,0.06,WeatherDisplay:10.37,2013-06-14 10:55:00,
2013-06-14 07:00:00,69.4,69.1,29.82,NW,323,0.0,1.0,99,0.00,CLR,,0.06,WeatherDisplay:10.37,2013-06-14 11:00:00,
2013-06-14 07:05:00,69.3,69.0,29.82,NW,323,0.0,0.0,99,0.00,CLR,,0.06,WeatherDisplay:10.37,2013-06-14 11:05:00,
2013-06-14 07:10:00,69.3,69.0,29.83,WNW,293,0.0,2.0,99,0.00,CLR,,0.06,WeatherDisplay:10.37,2013-06-14 11:10:00,
2013-06-14 07:15:00,69.4,69.1,29.83,West,278,0.0,0.0,99,0.00,CLR,,0.06,WeatherDisplay:10.37,2013-06-14 11:15:00,
2013-06-14 07:20:00,69.6,69.3,29.83,West,265,1.0,2.0,99,0.00,CLR,,0.06,WeatherDisplay:10.37,2013-06-14 11:20:00,
2013-06-14 07:25:00,69.6,69.3,29.83,WNW,291,0.0,2.0,99,0.00,CLR,,0.06,WeatherDisplay:10.37,2013-06-14 11:25:00,
2013-06-14 07:30:00,69.8,69.5,29.83,NNW,329,1.0,3.0,99,0.00,CLR,,0.06,WeatherDisplay:10.37,2013-06-14 11:30:00,
2013-06-14 07:40:00,70.5,70.2,29.82,NNE,12,0.0,2.0,99,0.00,CLR,,0.06,WeatherDisplay:10.37,2013-06-14 11:40:00,
2013-06-14 07:50:00,71.8,71.5,29.83,North,3,1.0,2.0,99,0.00,CLR,,0.06,WeatherDisplay:10.37,2013-06-14 11:50:00,
2013-06-14 07:55:00,72.7,72.4,29.83,North,4,0.0,2.0,99,0.00,CLR,,0.06,WeatherDisplay:10.37,2013-06-14 11:55:00,
2013-06-14 08:00:00,73.5,73.2,29.83,North,360,0.0,3.0,99,0.00,CLR,,0.06,WeatherDisplay:10.37,2013-06-14 12:00:00,
2013-06-14 08:05:00,74.3,74.0,29.83,NNW,343,0.0,5.0,99,0.00,CLR,,0.06,WeatherDisplay:10.37,2013-06-14 12:05:00,
2013-06-14 08:10:00,75.0,74.7,29.83,North,4,0.0,2.0,99,0.00,CLR,,0.06,WeatherDisplay:10.37,2013-06-14 12:10:00,
2013-06-14 08:15:00,75.7,75.1,29.84,NNE,14,0.0,2.0,98,0.00,CLR,,0.06,WeatherDisplay:10.37,2013-06-14 12:15:00,
2013-06-14 08:20:00,76.3,74.7,29.84,North,4,0.0,2.0,95,0.00,CLR,,0.06,WeatherDisplay:10.37,2013-06-14 12:20:00,
2013-06-14 08:25:00,77.0,74.8,29.84,North,11,0.0,4.0,93,0.00,CLR,,0.06,WeatherDisplay:10.37,2013-06-14 12:25:00,
2013-06-14 08:30:00,77.5,73.4,29.84,North,4,1.0,3.0,87,0.00,CLR,,0.06,WeatherDisplay:10.37,2013-06-14 12:30:00,
2013-06-14 08:40:00,78.3,71.6,29.84,NNW,340,1.0,6.0,80,0.00,CLR,,0.06,WeatherDisplay:10.37,2013-06-14 12:40:00,
2013-06-14 08:45:00,78.3,70.8,29.84,NNW,348,1.0,4.0,78,0.00,CLR,,0.06,WeatherDisplay:10.37,2013-06-14 12:45:00,
2013-06-14 08:50:00,78.3,69.3,29.84,North,359,1.0,4.0,74,0.00,CLR,,0.06,WeatherDisplay:10.37,2013-06-14 12:50:00,
2013-06-14 08:55:00,78.8,70.6,29.85,NNE,12,1.0,4.0,76,0.00,CLR,,0.06,WeatherDisplay:10.37,2013-06-14 12:55:00,
2013-06-14 09:00:00,79.2,68.9,29.85,North,360,2.0,6.0,71,0.00,CLR,,0.06,WeatherDisplay:10.37,2013-06-14 13:00:00,
2013-06-14 09:05:00,78.9,67.4,29.85,NNW,335,1.0,6.0,68,0.00,CLR,,0.06,WeatherDisplay:10.37,2013-06-14 13:05:00,
2013-06-14 09:10:00,79.3,67.9,29.84,NNW,340,1.0,5.0,68,0.00,CLR,,0.06,WeatherDisplay:10.37,2013-06-14 13:10:00,
2013-06-14 09:15:00,79.5,67.6,29.85,NNW,343,1.0,3.0,67,0.00,CLR,,0.06,WeatherDisplay:10.37,2013-06-14 13:15:00,
2013-06-14 09:20:00,80.0,67.2,29.85,NNW,342,1.0,4.0,65,0.00,CLR,,0.06,WeatherDisplay:10.37,2013-06-14 13:20:00,
2013-06-14 09:25:00,80.4,67.1,29.85,NW,319,1.0,6.0,64,0.01,RA,,0.07,WeatherDisplay:10.37,2013-06-14 13:25:00,
2013-06-14 09:30:00,80.6,67.3,29.85,NW,317,1.0,6.0,64,0.00,RA,,0.07,WeatherDisplay:10.37,2013-06-14 13:30:00,
2013-06-14 09:35:00,80.8,67.0,29.85,North,355,0.0,6.0,63,0.00,CLR,,0.07,WeatherDisplay:10.37,2013-06-14 13:35:00,
2013-06-14 09:40:00,81.1,67.3,29.85,North,360,0.0,3.0,63,0.00,CLR,,0.07,WeatherDisplay:10.37,2013-06-14 13:40:00,
2013-06-14 09:45:00,81.3,65.6,29.85,NNW,334,2.0,6.0,59,0.00,CLR,,0.07,WeatherDisplay:10.37,2013-06-14 13:45:00,
2013-06-14 09:50:00,81.1,65.5,29.85,NW,320,2.0,6.0,59,0.00,CLR,,0.07,WeatherDisplay:10.37,2013-06-14 13:50:00,
2013-06-14 09:55:00,81.0,62.8,29.86,NW,320,3.0,7.0,54,0.00,CLR,,0.07,WeatherDisplay:10.37,2013-06-14 13:55:00,
2013-06-14 10:05:00,81.1,62.9,29.85,NW,320,0.0,7.0,54,0.00,CLR,,0.07,WeatherDisplay:10.37,2013-06-14 14:05:00,
2013-06-14 10:10:00,81.3,64.1,29.86,NNW,331,0.0,4.0,56,0.00,CLR,,0.07,WeatherDisplay:10.37,2013-06-14 14:10:00,
2013-06-14 10:15:00,81.7,64.5,29.85,NNW,335,2.0,7.0,56,0.00,CLR,,0.07,WeatherDisplay:10.37,2013-06-14 14:15:00,
2013-06-14 10:20:00,81.9,63.7,29.85,NW,318,1.0,5.0,54,0.00,CLR,,0.07,WeatherDisplay:10.37,2013-06-14 14:20:00,
2013-06-14 10:25:00,82.4,65.1,29.85,NW,307,1.0,5.0,56,0.00,CLR,,0.07,WeatherDisplay:10.37,2013-06-14 14:25:00,
2013-06-14 10:30:00,82.8,62.8,29.85,NNW,341,2.0,6.0,51,0.00,CLR,,0.07,WeatherDisplay:10.37,2013-06-14 14:30:00,
2013-06-14 10:35:00,82.5,62.0,29.85,NNW,336,3.0,7.0,50,0.00,CLR,,0.07,WeatherDisplay:10.37,2013-06-14 14:35:00,
2013-06-14 10:40:00,82.0,62.1,29.86,NW,323,1.0,7.0,51,0.00,CLR,,0.07,WeatherDisplay:10.37,2013-06-14 14:40:00,
2013-06-14 10:45:00,82.6,64.8,29.85,North,355,3.0,11.0,55,0.00,CLR,,0.07,WeatherDisplay:10.37,2013-06-14 14:45:00,
2013-06-14 10:50:00,82.5,62.6,29.85,North,350,1.0,10.0,51,0.00,CLR,,0.07,WeatherDisplay:10.37,2013-06-14 14:50:00,
2013-06-14 10:55:00,83.1,64.2,29.86,NNW,339,1.0,4.0,53,0.00,CLR,,0.07,WeatherDisplay:10.37,2013-06-14 14:55:00,
2013-06-14 11:05:00,83.7,64.8,29.86,North,353,1.0,4.0,53,0.00,CLR,,0.07,WeatherDisplay:10.37,2013-06-14 15:05:00,
2013-06-14 11:10:00,84.0,64.5,29.86,NW,306,2.0,6.0,52,0.00,CLR,,0.07,WeatherDisplay:10.37,2013-06-14 15:10:00,
2013-06-14 11:15:00,83.7,63.1,29.86,NNW,327,1.0,7.0,50,0.00,CLR,,0.07,WeatherDisplay:10.37,2013-06-14 15:15:00,
2013-06-14 11:20:00,83.8,63.2,29.86,NNW,340,1.0,5.0,50,0.00,CLR,,0.07,WeatherDisplay:10.37,2013-06-14 15:20:00,
2013-06-14 11:25:00,84.0,62.8,29.87,NNW,338,0.0,6.0,49,0.00,CLR,,0.07,WeatherDisplay:10.37,2013-06-14 15:25:00,
2013-06-14 11:30:00,84.6,63.9,29.86,North,357,1.0,5.0,50,0.00,CLR,,0.07,WeatherDisplay:10.37,2013-06-14 15:30:00,
2013-06-14 11:35:00,84.6,62.1,29.86,NNE,15,1.0,6.0,47,0.00,CLR,,0.07,WeatherDisplay:10.37,2013-06-14 15:35:00,
2013-06-14 11:40:00,84.6,62.7,29.86,North,358,1.0,7.0,48,0.00,CLR,,0.07,WeatherDisplay:10.37,2013-06-14 15:40:00,
2013-06-14 11:45:00,84.6,63.3,29.86,NNW,337,2.0,6.0,49,0.00,CLR,,0.07,WeatherDisplay:10.37,2013-06-14 15:45:00,
2013-06-14 11:50:00,84.6,63.9,29.87,NNE,33,1.0,5.0,50,0.00,CLR,,0.07,WeatherDisplay:10.37,2013-06-14 15:50:00,
2013-06-14 11:55:00,85.4,63.5,29.86,NE,50,1.0,8.0,48,0.00,CLR,,0.07,WeatherDisplay:10.37,2013-06-14 15:55:00,
2013-06-14 12:00:00,85.6,62.5,29.86,North,353,3.0,7.0,46,0.00,CLR,,0.07,WeatherDisplay:10.37,2013-06-14 16:00:00,
2013-06-14 12:05:00,85.3,62.2,29.86,NW,315,1.0,6.0,46,0.00,CLR,,0.07,WeatherDisplay:10.37,2013-06-14 16:05:00,
2013-06-14 12:10:00,85.3,62.2,29.86,WNW,303,1.0,5.0,46,0.00,CLR,,0.07,WeatherDisplay:10.37,2013-06-14 16:10:00,
2013-06-14 12:15:00,85.5,61.7,29.86,NW,317,1.0,4.0,45,0.00,CLR,,0.07,WeatherDisplay:10.37,2013-06-14 16:15:00,
2013-06-14 12:20:00,85.8,60.7,29.87,NNW,333,1.0,5.0,43,0.00,CLR,,0.07,WeatherDisplay:10.37,2013-06-14 16:20:00,
2013-06-14 12:25:00,85.8,60.7,29.87,North,358,1.0,4.0,43,0.00,CLR,,0.07,WeatherDisplay:10.37,2013-06-14 16:25:00,
2013-06-14 12:30:00,85.8,62.0,29.86,North,1,1.0,5.0,45,0.00,CLR,,0.07,WeatherDisplay:10.37,2013-06-14 16:30:00,
2013-06-14 12:35:00,85.8,62.0,29.86,NNW,334,1.0,5.0,45,0.00,CLR,,0.07,WeatherDisplay:10.37,2013-06-14 16:35:00,
2013-06-14 12:40:00,86.0,62.8,29.86,NNW,344,2.0,7.0,46,0.00,CLR,,0.07,WeatherDisplay:10.37,2013-06-14 16:40:00,
2013-06-14 12:45:00,86.0,60.9,29.87,North,5,2.0,4.0,43,0.00,CLR,,0.07,WeatherDisplay:10.37,2013-06-14 16:45:00,
2013-06-14 12:50:00,86.5,60.7,29.87,NNE,17,2.0,5.0,42,0.00,CLR,,0.07,WeatherDisplay:10.37,2013-06-14 16:50:00,
2013-06-14 12:55:00,86.5,60.0,29.87,NNE,19,1.0,6.0,41,0.00,CLR,,0.07,WeatherDisplay:10.37,2013-06-14 16:55:00,
2013-06-14 13:00:00,86.4,61.2,29.87,NNW,344,1.0,5.0,43,0.00,CLR,,0.07,WeatherDisplay:10.37,2013-06-14 17:00:00,
2013-06-14 13:05:00,86.2,61.1,29.87,NNW,327,0.0,4.0,43,0.00,CLR,,0.07,WeatherDisplay:10.37,2013-06-14 17:05:00,
2013-06-14 13:10:00,86.4,61.9,29.88,NW,323,2.0,6.0,44,0.00,CLR,,0.07,WeatherDisplay:10.37,2013-06-14 17:10:00,
2013-06-14 13:15:00,86.7,61.5,29.87,NNW,337,1.0,6.0,43,0.00,CLR,,0.07,WeatherDisplay:10.37,2013-06-14 17:15:00,
2013-06-14 13:20:00,86.7,62.8,29.87,NNW,335,0.0,2.0,45,0.00,CLR,,0.07,WeatherDisplay:10.37,2013-06-14 17:20:00,
2013-06-14 13:25:00,86.7,61.5,29.88,North,358,2.0,4.0,43,0.00,CLR,,0.07,WeatherDisplay:10.37,2013-06-14 17:25:00,
2013-06-14 13:30:00,86.7,60.9,29.87,NNE,12,1.0,6.0,42,0.00,CLR,,0.07,WeatherDisplay:10.37,2013-06-14 17:30:00,
2013-06-14 13:35:00,86.7,60.9,29.87,NE,34,1.0,4.0,42,0.00,CLR,,0.07,WeatherDisplay:10.37,2013-06-14 17:35:00,
2013-06-14 13:40:00,86.7,60.9,29.87,NE,53,1.0,4.0,42,0.00,CLR,,0.07,WeatherDisplay:10.37,2013-06-14 17:40:00,
2013-06-14 13:45:00,87.3,62.0,29.87,NE,42,1.0,3.0,43,0.00,CLR,,0.07,WeatherDisplay:10.37,2013-06-14 17:45:00,
2013-06-14 13:50:00,87.7,60.4,29.87,North,359,1.0,4.0,40,0.00,CLR,,0.07,WeatherDisplay:10.37,2013-06-14 17:50:00,
2013-06-14 13:55:00,87.8,60.5,29.87,NW,323,0.0,3.0,40,0.00,CLR,,0.07,WeatherDisplay:10.37,2013-06-14 17:55:00,
2013-06-14 14:00:00,87.8,60.5,29.87,NW,323,0.0,2.0,40,0.00,CLR,,0.07,WeatherDisplay:10.37,2013-06-14 18:00:00,
2013-06-14 14:10:00,87.7,60.4,29.87,WNW,287,2.0,6.0,40,0.00,CLR,,0.07,WeatherDisplay:10.37,2013-06-14 18:10:00,
2013-06-14 14:15:00,87.7,59.0,29.87,NNW,338,2.0,6.0,38,0.00,CLR,,0.07,WeatherDisplay:10.37,2013-06-14 18:15:00,
2013-06-14 14:20:00,88.0,59.9,29.87,North,357,1.0,5.0,39,0.00,CLR,,0.07,WeatherDisplay:10.37,2013-06-14 18:20:00,
2013-06-14 14:25:00,88.0,60.6,29.87,NW,314,1.0,3.0,40,0.00,CLR,,0.07,WeatherDisplay:10.37,2013-06-14 18:25:00,
2013-06-14 14:30:00,88.2,61.5,29.87,North,352,1.0,6.0,41,0.00,CLR,,0.07,WeatherDisplay:10.37,2013-06-14 18:30:00,
2013-06-14 14:35:00,88.1,60.0,29.87,NW,315,2.0,6.0,39,0.00,CLR,,0.07,WeatherDisplay:10.37,2013-06-14 18:35:00,
2013-06-14 14:40:00,88.0,59.9,29.88,NW,307,2.0,6.0,39,0.00,CLR,,0.07,WeatherDisplay:10.37,2013-06-14 18:40:00,
2013-06-14 14:50:00,88.8,61.4,29.88,North,351,1.0,4.0,40,0.00,CLR,,0.07,WeatherDisplay:10.37,2013-06-14 18:50:00,
2013-06-14 14:55:00,88.9,61.4,29.88,NNW,330,2.0,5.0,40,0.00,CLR,,0.07,WeatherDisplay:10.37,2013-06-14 18:55:00,
2013-06-14 15:00:00,88.9,61.4,29.88,NW,323,2.0,5.0,40,0.00,CLR,,0.07,WeatherDisplay:10.37,2013-06-14 19:00:00,
2013-06-14 15:05:00,88.9,61.4,29.88,NW,323,2.0,5.0,40,0.00,CLR,,0.07,WeatherDisplay:10.37,2013-06-14 19:05:00,
2013-06-14 15:10:00,86.5,60.7,29.88,NW,323,1.0,5.0,42,0.00,CLR,,0.07,WeatherDisplay:10.37,2013-06-14 19:10:00,
2013-06-14 15:15:00,86.5,60.7,29.88,NW,323,1.0,2.0,42,0.00,CLR,,0.07,WeatherDisplay:10.37,2013-06-14 19:15:00,
2013-06-14 15:20:00,84.9,59.9,29.89,NNW,341,1.0,3.0,43,0.00,CLR,,0.07,WeatherDisplay:10.37,2013-06-14 19:20:00,
2013-06-14 15:25:00,85.8,60.1,29.88,North,5,2.0,6.0,42,0.00,CLR,,0.07,WeatherDisplay:10.37,2013-06-14 19:25:00,
2013-06-14 15:30:00,85.8,60.1,29.88,North,8,2.0,6.0,42,0.00,CLR,,0.07,WeatherDisplay:10.37,2013-06-14 19:30:00,
2013-06-14 15:35:00,86.7,60.2,29.88,NNW,342,2.0,6.0,41,0.00,CLR,,0.07,WeatherDisplay:10.37,2013-06-14 19:35:00,
2013-06-14 15:40:00,86.5,57.9,29.88,SW,224,1.0,4.0,38,0.00,CLR,,0.07,WeatherDisplay:10.37,2013-06-14 19:40:00,
2013-06-14 15:45:00,85.6,58.5,29.88,WSW,239,0.0,5.0,40,0.00,CLR,,0.07,WeatherDisplay:10.37,2013-06-14 19:45:00,
2013-06-14 15:50:00,86.2,59.7,29.89,NW,316,1.0,2.0,41,0.00,CLR,,0.07,WeatherDisplay:10.37,2013-06-14 19:50:00,
2013-06-14 15:55:00,86.7,59.5,29.89,NW,317,1.0,5.0,40,0.00,CLR,,0.07,WeatherDisplay:10.37,2013-06-14 19:55:00,
2013-06-14 16:00:00,86.7,59.5,29.89,NW,322,1.0,3.0,40,0.00,CLR,,0.07,WeatherDisplay:10.37,2013-06-14 20:00:00,
2013-06-14 16:05:00,86.0,60.2,29.89,North,350,1.0,3.0,42,0.00,CLR,,0.07,WeatherDisplay:10.37,2013-06-14 20:05:00,
2013-06-14 16:10:00,84.6,59.6,29.89,NW,307,0.0,2.0,43,0.00,CLR,,0.07,WeatherDisplay:10.37,2013-06-14 20:10:00,
2013-06-14 16:15:00,84.6,59.6,29.89,WSW,237,0.0,2.0,43,0.00,CLR,,0.07,WeatherDisplay:10.37,2013-06-14 20:15:00,
2013-06-14 16:20:00,84.4,58.8,29.89,WSW,254,0.0,2.0,42,0.00,CLR,,0.07,WeatherDisplay:10.37,2013-06-14 20:20:00,
2013-06-14 16:25:00,85.2,59.5,29.89,WSW,253,1.0,3.0,42,0.00,CLR,,0.07,WeatherDisplay:10.37,2013-06-14 20:25:00,
2013-06-14 16:30:00,85.3,59.6,29.89,WNW,299,1.0,2.0,42,0.00,CLR,,0.07,WeatherDisplay:10.37,2013-06-14 20:30:00,
2013-06-14 16:35:00,85.4,59.0,29.89,NNW,334,0.0,3.0,41,0.00,CLR,,0.07,WeatherDisplay:10.37,2013-06-14 20:35:00,
2013-06-14 16:40:00,85.1,59.4,29.89,NNW,328,1.0,3.0,42,0.00,CLR,,0.07,WeatherDisplay:10.37,2013-06-14 20:40:00,
2013-06-14 16:45:00,84.4,58.8,29.89,NNW,337,1.0,3.0,42,0.00,CLR,,0.07,WeatherDisplay:10.37,2013-06-14 20:45:00,
2013-06-14 16:50:00,84.2,59.3,29.89,NNE,20,0.0,2.0,43,0.00,CLR,,0.07,WeatherDisplay:10.37,2013-06-14 20:50:00,
2013-06-14 16:55:00,83.7,60.7,29.89,NE,49,1.0,2.0,46,0.00,CLR,,0.07,WeatherDisplay:10.37,2013-06-14 20:55:00,
2013-06-14 17:00:00,83.5,59.3,29.89,NNW,347,0.0,4.0,44,0.00,CLR,,0.07,WeatherDisplay:10.37,2013-06-14 21:00:00,
2013-06-14 17:05:00,83.3,59.1,29.89,NNW,344,1.0,2.0,44,0.00,CLR,,0.07,WeatherDisplay:10.37,2013-06-14 21:05:00,
2013-06-14 17:10:00,83.1,59.6,29.90,NNW,343,0.0,2.0,45,0.00,CLR,,0.07,WeatherDisplay:10.37,2013-06-14 21:10:00,
2013-06-14 17:15:00,83.1,59.6,29.90,North,358,0.0,4.0,45,0.00,CLR,,0.07,WeatherDisplay:10.37,2013-06-14 21:15:00,
2013-06-14 17:20:00,83.1,59.6,29.90,North,8,1.0,5.0,45,0.00,CLR,,0.07,WeatherDisplay:10.37,2013-06-14 21:20:00,
2013-06-14 17:30:00,82.9,58.8,29.90,NW,323,1.0,4.0,44,0.00,CLR,,0.07,WeatherDisplay:10.37,2013-06-14 21:30:00,
2013-06-14 17:35:00,82.2,59.4,29.90,NW,323,1.0,4.0,46,0.00,CLR,,0.07,WeatherDisplay:10.37,2013-06-14 21:35:00,
2013-06-14 17:40:00,82.0,59.8,29.90,NW,323,1.0,2.0,47,0.00,CLR,,0.07,WeatherDisplay:10.37,2013-06-14 21:40:00,
2013-06-14 17:50:00,81.7,60.1,29.90,North,354,1.0,4.0,48,0.00,CLR,,0.07,WeatherDisplay:10.37,2013-06-14 21:50:00,
2013-06-14 17:55:00,81.9,60.2,29.90,NNW,347,0.0,3.0,48,0.00,CLR,,0.07,WeatherDisplay:10.37,2013-06-14 21:55:00,
2013-06-14 18:00:00,81.9,60.2,29.90,NW,309,0.0,2.0,48,0.00,CLR,,0.07,WeatherDisplay:10.37,2013-06-14 22:00:00,
2013-06-14 18:05:00,82.0,61.0,29.90,WNW,303,1.0,3.0,49,0.00,CLR,,0.07,WeatherDisplay:10.37,2013-06-14 22:05:00,
2013-06-14 18:10:00,82.0,61.6,29.90,NNE,13,1.0,3.0,50,0.00,CLR,,0.07,WeatherDisplay:10.37,2013-06-14 22:10:00,
2013-06-14 18:15:00,82.0,60.4,29.90,North,355,0.0,3.0,48,0.00,CLR,,0.07,WeatherDisplay:10.37,2013-06-14 22:15:00,
2013-06-14 18:20:00,82.0,60.4,29.90,NNW,329,0.0,2.0,48,0.00,CLR,,0.07,WeatherDisplay:10.37,2013-06-14 22:20:00,
2013-06-14 18:25:00,81.5,59.9,29.91,NW,324,0.0,5.0,48,0.00,CLR,,0.07,WeatherDisplay:10.37,2013-06-14 22:25:00,
2013-06-14 18:30:00,81.5,59.4,29.91,West,266,0.0,4.0,47,0.00,CLR,,0.07,WeatherDisplay:10.37,2013-06-14 22:30:00,
2013-06-14 18:35:00,81.4,60.4,29.91,WNW,300,0.0,3.0,49,0.00,CLR,,0.07,WeatherDisplay:10.37,2013-06-14 22:35:00,
2013-06-14 18:40:00,81.4,60.4,29.91,NNE,30,0.0,3.0,49,0.00,CLR,,0.07,WeatherDisplay:10.37,2013-06-14 22:40:00,
2013-06-14 18:45:00,81.3,60.9,29.92,ESE,115,0.0,4.0,50,0.00,CLR,,0.07,WeatherDisplay:10.37,2013-06-14 22:45:00,
2013-06-14 18:50:00,81.3,59.8,29.91,East,87,0.0,3.0,48,0.00,CLR,,0.07,WeatherDisplay:10.37,2013-06-14 22:50:00,
2013-06-14 18:55:00,81.3,60.3,29.91,NNW,338,0.0,2.0,49,0.00,CLR,,0.07,WeatherDisplay:10.37,2013-06-14 22:55:00,
2013-06-14 19:05:00,81.0,60.0,29.92,NNW,344,0.0,4.0,49,0.00,CLR,,0.07,WeatherDisplay:10.37,2013-06-14 23:05:00,
2013-06-14 19:10:00,80.8,60.4,29.92,NW,309,0.0,4.0,50,0.00,CLR,,0.07,WeatherDisplay:10.37,2013-06-14 23:10:00,
2013-06-14 19:15:00,80.4,60.6,29.92,West,263,0.0,2.0,51,0.00,CLR,,0.07,WeatherDisplay:10.37,2013-06-14 23:15:00,
2013-06-14 19:20:00,80.1,60.3,29.92,WNW,285,0.0,1.0,51,0.00,CLR,,0.07,WeatherDisplay:10.37,2013-06-14 23:20:00,
2013-06-14 19:25:00,79.9,60.7,29.92,NNE,20,0.0,0.0,52,0.00,CLR,,0.07,WeatherDisplay:10.37,2013-06-14 23:25:00,
2013-06-14 19:30:00,79.7,61.1,29.92,East,83,0.0,2.0,53,0.00,CLR,,0.07,WeatherDisplay:10.37,2013-06-14 23:30:00,
2013-06-14 19:35:00,79.7,61.1,29.92,ESE,121,0.0,2.0,53,0.00,CLR,,0.07,WeatherDisplay:10.37,2013-06-14 23:35:00,
2013-06-14 19:45:00,79.5,61.4,29.93,NW,323,0.0,1.0,54,0.00,CLR,,0.07,WeatherDisplay:10.37,2013-06-14 23:45:00,
2013-06-14 19:50:00,79.3,61.8,29.92,WNW,298,0.0,2.0,55,0.00,CLR,,0.07,WeatherDisplay:10.37,2013-06-14 23:50:00,
2013-06-14 19:55:00,79.2,62.1,29.93,WNW,295,0.0,2.0,56,0.00,CLR,,0.07,WeatherDisplay:10.37,2013-06-14 23:55:00,
2013-06-14 20:00:00,79.0,62.4,29.93,NW,318,0.0,0.0,57,0.00,CLR,,0.07,WeatherDisplay:10.37,2013-06-15 00:00:00,
2013-06-14 20:05:00,78.7,62.7,29.93,WNW,301,0.0,2.0,58,0.00,CLR,,0.07,WeatherDisplay:10.37,2013-06-15 00:05:00,
2013-06-14 20:10:00,78.5,63.4,29.93,NW,311,0.0,1.0,60,0.00,CLR,,0.07,WeatherDisplay:10.37,2013-06-15 00:10:00,
2013-06-14 20:15:00,78.1,63.6,29.94,NW,323,0.0,0.0,61,0.00,CLR,,0.07,WeatherDisplay:10.37,2013-06-15 00:15:00,
2013-06-14 20:25:00,77.5,63.9,29.94,ENE,74,0.0,0.0,63,0.00,CLR,,0.07,WeatherDisplay:10.37,2013-06-15 00:25:00,
2013-06-14 20:30:00,77.2,63.6,29.94,East,98,0.0,1.0,63,0.00,CLR,,0.07,WeatherDisplay:10.37,2013-06-15 00:30:00,
2013-06-14 20:35:00,76.8,63.7,29.94,East,98,0.0,0.0,64,0.00,CLR,,0.07,WeatherDisplay:10.37,2013-06-15 00:35:00,
2013-06-14 20:40:00,76.5,63.8,29.94,North,6,0.0,2.0,65,0.00,CLR,,0.07,WeatherDisplay:10.37,2013-06-15 00:40:00,
2013-06-14 20:45:00,76.4,63.7,29.95,NW,323,0.0,0.0,65,0.00,CLR,,0.07,WeatherDisplay:10.37,2013-06-15 00:45:00,
2013-06-14 20:50:00,75.8,64.0,29.95,NW,323,0.0,0.0,67,0.00,CLR,,0.07,WeatherDisplay:10.37,2013-06-15 00:50:00,
2013-06-14 21:00:00,75.1,64.3,29.95,NW,323,0.0,0.0,69,0.00,CLR,,0.07,WeatherDisplay:10.37,2013-06-15 01:00:00,
2013-06-14 21:05:00,74.8,64.4,29.96,NW,305,0.0,2.0,70,0.00,CLR,,0.07,WeatherDisplay:10.37,2013-06-15 01:05:00,
2013-06-14 21:10:00,74.7,64.6,29.96,WNW,282,0.0,0.0,71,0.00,CLR,,0.07,WeatherDisplay:10.37,2013-06-15 01:10:00,
2013-06-14 21:15:00,74.5,64.5,29.96,West,278,0.0,0.0,71,0.00,CLR,,0.07,WeatherDisplay:10.37,2013-06-15 01:15:00,
2013-06-14 21:20:00,74.5,64.5,29.96,West,278,0.0,0.0,71,0.00,CLR,,0.07,WeatherDisplay:10.37,2013-06-15 01:20:00,
2013-06-14 21:25:00,74.1,64.5,29.96,West,278,0.0,0.0,72,0.00,CLR,,0.07,WeatherDisplay:10.37,2013-06-15 01:25:00,
2013-06-14 21:30:00,73.9,64.7,29.96,West,278,0.0,0.0,73,0.00,CLR,,0.07,WeatherDisplay:10.37,2013-06-15 01:30:00,
2013-06-14 21:35:00,73.8,64.6,29.97,West,278,0.0,0.0,73,0.00,CLR,,0.07,WeatherDisplay:10.37,2013-06-15 01:35:00,
2013-06-14 21:40:00,73.6,64.8,29.97,West,278,0.0,0.0,74,0.00,CLR,,0.07,WeatherDisplay:10.37,2013-06-15 01:40:00,
2013-06-14 21:45:00,73.4,65.0,29.97,West,278,0.0,0.0,75,0.00,CLR,,0.07,WeatherDisplay:10.37,2013-06-15 01:45:00,
2013-06-14 21:50:00,73.2,64.8,29.97,West,278,0.0,0.0,75,0.00,CLR,,0.07,WeatherDisplay:10.37,2013-06-15 01:50:00,
2013-06-14 21:55:00,73.1,65.1,29.97,West,278,0.0,1.0,76,0.00,CLR,,0.07,WeatherDisplay:10.37,2013-06-15 01:55:00,
2013-06-14 22:00:00,73.0,65.8,29.98,West,272,0.0,2.0,78,0.00,CLR,,0.07,WeatherDisplay:10.37,2013-06-15 02:00:00,
2013-06-14 22:05:00,72.9,65.6,29.98,WSW,256,0.0,2.0,78,0.00,CLR,,0.07,WeatherDisplay:10.37,2013-06-15 02:05:00,
2013-06-14 22:10:00,72.9,65.2,29.99,SW,226,0.0,3.0,77,0.00,CLR,,0.07,WeatherDisplay:10.37,2013-06-15 02:10:00,
2013-06-14 22:15:00,73.0,65.0,29.99,SSE,147,0.0,3.0,76,0.00,CLR,,0.07,WeatherDisplay:10.37,2013-06-15 02:15:00,
2013-06-14 22:20:00,73.2,64.8,29.99,SE,143,0.0,2.0,75,0.00,CLR,,0.07,WeatherDisplay:10.37,2013-06-15 02:20:00,
2013-06-14 22:25:00,73.0,64.6,29.99,SW,236,0.0,1.0,75,0.00,CLR,,0.07,WeatherDisplay:10.37,2013-06-15 02:25:00,
2013-06-14 22:30:00,72.9,64.8,29.99,SW,233,0.0,0.0,76,0.00,CLR,,0.07,WeatherDisplay:10.37,2013-06-15 02:30:00,
2013-06-14 22:35:00,72.5,64.5,29.99,SW,233,0.0,0.0,76,0.00,CLR,,0.07,WeatherDisplay:10.37,2013-06-15 02:35:00,
2013-06-14 22:40:00,72.3,64.7,30.00,SW,233,0.0,0.0,77,0.00,CLR,,0.07,WeatherDisplay:10.37,2013-06-15 02:40:00,
2013-06-14 22:45:00,72.3,64.7,30.00,SW,233,0.0,0.0,77,0.00,CLR,,0.07,WeatherDisplay:10.37,2013-06-15 02:45:00,
2013-06-14 22:50:00,72.0,65.1,30.00,SW,233,0.0,1.0,79,0.00,CLR,,0.07,WeatherDisplay:10.37,2013-06-15 02:50:00,
2013-06-14 22:55:00,71.8,64.9,30.00,SW,233,0.0,0.0,79,0.00,CLR,,0.07,WeatherDisplay:10.37,2013-06-15 02:55:00,
2013-06-14 23:00:00,71.8,64.9,30.00,SW,233,0.0,0.0,79,0.00,CLR,,0.07,WeatherDisplay:10.37,2013-06-15 03:00:00,
2013-06-14 23:05:00,71.6,65.1,30.01,SW,233,0.0,1.0,80,0.00,CLR,,0.07,WeatherDisplay:10.37,2013-06-15 03:05:00,
2013-06-14 23:10:00,71.4,65.3,30.00,SW,233,0.0,1.0,81,0.00,CLR,,0.07,WeatherDisplay:10.37,2013-06-15 03:10:00,
2013-06-14 23:15:00,71.2,65.1,30.01,SW,233,0.0,0.0,81,0.00,CLR,,0.07,WeatherDisplay:10.37,2013-06-15 03:15:00,
2013-06-14 23:20:00,71.0,65.3,30.01,SW,233,0.0,0.0,82,0.00,CLR,,0.07,WeatherDisplay:10.37,2013-06-15 03:20:00,
2013-06-14 23:25:00,70.9,65.1,30.01,SW,233,0.0,0.0,82,0.00,CLR,,0.07,WeatherDisplay:10.37,2013-06-15 03:25:00,
2013-06-14 23:30:00,70.7,65.3,30.01,SW,233,0.0,0.0,83,0.00,CLR,,0.07,WeatherDisplay:10.37,2013-06-15 03:30:00,
2013-06-14 23:35:00,70.5,65.1,30.01,SW,233,0.0,0.0,83,0.00,CLR,,0.07,WeatherDisplay:10.37,2013-06-15 03:35:00,
2013-06-14 23:40:00,70.4,65.3,30.02,SW,233,0.0,0.0,84,0.00,CLR,,0.07,WeatherDisplay:10.37,2013-06-15 03:40:00,
2013-06-14 23:45:00,70.3,65.3,30.02,SW,233,0.0,0.0,84,0.00,CLR,,0.07,WeatherDisplay:10.37,2013-06-15 03:45:00,
2013-06-14 23:50:00,70.2,65.4,30.02,SW,233,0.0,0.0,85,0.00,CLR,,0.07,WeatherDisplay:10.37,2013-06-15 03:50:00,
2013-06-14 23:55:00,70.0,65.3,30.02,SW,233,0.0,0.0,85,0.00,CLR,,0.07,WeatherDisplay:10.37,2013-06-15 03:55:00,